Temperature
21 19 21 20 20 20 20 20 20 20 20 20 20 20 20 20 20 19 19 19 19 19 19 19 18 18 18 18 18 18 18 18 18 18 18 18 18 18 18 18 17 17 18
20 20 21 20 20 20 20 20 20 20 20 20 20 20 20 20 19 19 19 19 19 19 19 19 18 18 18 18 18 18 18 18 18 18 18 18 18 18 18 17 17 17 18
20 20 21 20 20 19 19 20 20 20 20 20 20 19 19 19 19 19 19 19 19 19 19 19 18 18 18 18 18 18 18 18 18 18 18 17 17 18 17 18 18 18 18
20 19 19 20 20 19 19 19 20 20 20 20 19 19 19 19 19 19 19 19 19 19 19 19 18 18 18 18 18 18 18 18 18 18 17 17 17 18 18 17 18 18 17
20 19 20 20 20 19 19 19 19 19 19 19 19 19 19 19 19 19 19 19 19 18 18 18 18 18 18 18 18 18 18 18 18 17 17 17 17 18 17 17 17 17 18
19 19 19 20 19 19 19 19 19 19 19 19 19 19 19 19 19 19 19 19 18 18 18 18 18 18 18 18 18 18 18 18 18 18 17 17 17 18 17 17 17 17 17
20 19 19 19 19 19 19 19 19 19 19 19 19 19 19 19 19 19 18 18 18 18 18 18 18 18 18 18 18 18 18 18 17 17 17 17 17 18 17 17 17 17 17
20 19 18 19 19 19 19 19 19 19 19 19 19 19 19 18 18 18 18 18 18 18 18 18 18 18 18 18 18 18 18 18 17 17 17 17 17 18 17 17 17 17 17
20 19 18 18 19 19 19 19 19 19 19 19 19 19 19 18 18 18 18 18 18 18 17 17 18 18 18 18 18 18 18 18 17 17 17 17 18 18 17 17 17 17 17
19 19 18 19 18 18 18 19 19 19 19 19 19 19 19 19 18 18 18 18 18 18 17 17 17 18 18 18 18 18 18 18 17 17 17 17 18 18 18 17 17 17 17
18 18 18 18 18 18 18 18 18 19 19 19 18 18 19 18 18 18 18 18 18 18 17 17 17 17 18 18 18 18 18 17 18 18 18 17 18 18 18 18 17 17 17
18 18 18 18 18 18 18 18 18 18 18 18 18 18 18 18 18 18 17 18 18 18 18 18 18 17 17 17 17 18 17 17 18 18 18 18 18 18 18 18 18 18 17
18 18 18 18 18 18 18 18 18 18 18 18 18 18 18 18 18 17 17 17 17 17 17 17 17 17 17 17 17 17 17 17 17 18 18 18 18 18 18 18 18 18 18
18 18 18 18 18 18 18 18 18 18 18 18 18 17 17 17 17 17 17 17 17 17 17 17 17 17 17 17 17 17 17 17 17 17 17 17 18 18 18 18 18 18 18
18 18 19 19 18 18 18 18 18 17 17 17 17 17 17 17 17 17 17 17 17 17 17 17 17 16 17 17 17 17 17 17 17 17 17 17 18 18 18 18 18 18 18
18 18 18 18 18 18 18 18 17 17 17 16 16 16 16 16 16 16 16 16 16 16 16 16 16 16 16 16 16 16 16 17 17 17 17 17 17 18 18 18 18 18 18
18 18 18 18 18 18 17 17 17 16 16 16 15 15 15 15 15 15 15 15 15 15 15 15 15 15 16 16 16 16 16 16 16 16 16 17 17 17 18 18 18 18 18
17 17 17 17 18 17 17 17 16 16 15 15 15 14 14 15 15 15 14 15 15 15 15 15 15 15 15 15 15 15 16 16 16 16 16 16 16 16 17 17 18 18 18
17 17 18 18 17 17 17 16 16 15 15 14 14 13 13 13 14 14 14 14 14 14 14 15 15 14 15 15 15 15 15 15 15 16 16 16 16 16 16 17 17 18 18
17 17 17 17 17 16 16 16 15 15 14 14 13 13 13 12 13 13 13 13 13 14 14 14 14 13 14 14 15 15 15 15 15 16 16 16 16 16 16 16 16 17 17
17 17 17 17 17 16 16 15 15 15 14 14 13 12 12 12 12 12 12 12 13 13 13 13 13 14 14 14 14 15 16 16 16 15 15 16 16 15 15 16 16 16 16
17 17 17 17 16 16 15 15 15 14 14 13 12 12 11 11 11 12 11 12 12 12 12 12 12 13 14 14 14 15 16 17 16 16 15 15 15 15 15 15 15 16 16
17 17 17 17 16 16 15 15 14 14 14 14 13 12 11 11 11 11 11 11 11 12 12 12 12 12 13 13 14 14 15 16 16 16 15 15 15 15 15 15 15 15 16
18 17 17 17 16 16 16 15 14 14 14 13 12 12 11 11 11 11 10 10 11 11 11 11 12 12 12 13 14 13 13 13 14 15 16 15 15 15 15 15 15 15 15
18 18 17 17 16 16 16 15 14 14 13 13 12 11 11 11 10 10 10 10 10 10 10 10 11 11 12 12 13 13 13 13 13 13 15 15 15 15 15 15 15 15 15
18 18 17 17 17 16 16 15 14 13 12 12 11 11 11 12 11 10 10 10 10 10 10 10 10 10 11 11 11 12 13 13 14 14 14 14 15 15 14 14 14 15 15
Wind_Speed
13 16 17 14 11 11 12 12 13 14 15 15 15 14 13 12 12 11 10 9 8 7 6 5 6 6 6 6 7 7 8 8 8 8 8 9 9 10 12 14 15 17 19
16 17 17 14 13 12 12 12 13 14 14 14 14 13 12 11 11 10 9 8 7 6 5 5 5 5 5 6 6 6 7 7 7 7 8 10 10 10 11 11 11 17 18
17 18 17 15 13 12 12 12 12 13 13 13 13 12 11 10 9 8 7 6 6 5 4 4 4 4 5 5 6 6 6 6 6 5 6 9 11 10 10 12 16 19 18
17 17 16 16 14 13 12 12 12 12 12 12 12 11 10 9 8 7 6 5 5 4 4 3 3 4 4 4 5 5 5 5 5 5 5 8 10 12 11 13 16 17 18
15 16 17 16 14 13 12 11 11 11 11 11 10 9 8 7 6 6 5 5 5 5 5 4 4 3 4 4 4 4 4 5 3 7 5 6 9 11 11 13 14 16 17
15 15 18 15 14 13 12 11 10 10 10 9 9 8 7 6 5 5 5 5 5 5 5 5 5 4 4 4 4 3 3 3 7 3 4 4 9 11 11 12 13 15 16
14 14 17 15 14 13 12 11 11 10 9 9 8 7 6 6 6 6 6 6 6 6 6 5 5 5 5 5 5 4 4 4 7 3 4 4 8 10 10 11 12 14 15
13 13 16 13 12 12 11 10 10 9 8 8 7 6 6 6 6 6 6 6 6 6 6 6 6 6 6 7 7 6 6 8 7 4 3 4 10 8 8 10 11 13 14
11 11 12 13 12 10 8 7 7 6 6 5 5 5 5 6 6 7 7 7 7 7 7 7 7 7 8 8 8 8 8 8 9 5 5 4 11 8 9 10 11 12 13
9 8 8 8 8 9 9 7 5 4 3 2 3 4 5 6 8 8 9 9 8 8 8 8 9 8 9 9 9 10 9 9 12 8 7 7 12 10 10 11 12 12 13
8 6 5 6 5 4 5 6 5 4 3 3 5 5 7 8 8 8 8 3 6 8 9 9 10 10 10 12 12 11 11 11 12 9 8 9 11 11 12 13 13 13 13
9 6 4 4 4 3 3 4 2 1 2 2 3 4 5 6 6 6 1 4 7 8 9 10 9 10 12 11 13 14 12 13 13 10 9 11 11 12 13 14 15 16 16
8 6 5 4 4 3 3 3 2 2 2 2 3 4 5 6 6 6 5 5 7 9 9 8 10 10 10 9 8 11 12 12 11 11 10 14 14 14 14 15 17 17 18
8 6 5 5 5 4 4 3 2 2 2 2 3 4 5 5 5 4 4 5 6 6 6 7 6 8 9 10 11 12 12 12 12 11 10 14 16 16 16 16 18 19 20
8 7 6 5 5 5 4 3 3 3 3 3 4 4 6 5 4 4 3 4 6 5 6 5 6 6 8 9 11 12 13 14 14 14 11 14 17 18 18 18 18 20 22
8 8 7 6 6 5 5 4 3 3 3 4 4 6 6 6 5 4 4 4 5 5 4 4 5 6 7 7 9 10 12 14 14 15 16 14 19 20 20 20 20 20 22
8 8 8 7 6 5 5 5 4 4 4 5 5 6 6 7 5 5 4 4 3 4 4 5 5 6 7 7 9 9 10 12 14 15 16 16 16 21 23 23 22 22 22
8 8 7 7 7 6 5 3 4 4 5 5 5 5 6 7 6 6 5 4 3 5 5 5 6 6 6 7 8 8 9 9 12 14 16 16 16 16 21 26 25 24 24
7 7 7 6 5 5 4 3 3 3 4 5 5 6 7 6 6 7 5 4 5 6 6 6 6 6 7 8 8 9 10 10 11 13 14 16 17 17 18 20 26 26 26
7 6 6 5 4 4 3 2 0 2 3 4 5 5 6 6 6 8 6 4 7 6 6 5 6 6 8 8 9 10 10 11 11 11 13 13 14 17 19 19 19 23 28
7 7 6 6 5 4 2 2 2 3 4 4 5 5 6 6 6 6 7 5 6 6 6 8 7 8 8 7 9 10 10 12 11 10 10 10 12 14 16 17 18 18 19
9 9 8 8 7 6 3 2 2 3 4 4 4 4 5 6 6 6 6 7 6 6 7 7 6 8 8 6 7 9 9 8 7 8 7 8 9 9 11 15 18 19 19
10 11 9 9 8 7 5 4 3 3 5 4 4 4 4 6 6 6 6 7 7 8 6 6 7 8 8 7 6 6 6 6 6 5 6 6 6 6 8 9 14 18 19
12 11 11 10 9 7 6 6 6 6 7 6 5 5 6 5 6 6 6 6 6 7 6 7 6 7 8 9 6 6 7 7 7 7 6 5 5 6 7 7 9 12 16
11 10 9 9 8 8 7 6 6 7 6 6 5 5 6 5 5 5 5 5 5 6 6 7 7 8 8 9 8 8 8 7 9 8 10 9 7 6 6 7 8 9 12
9 9 8 8 8 8 7 7 7 7 7 8 7 7 6 5 4 4 5 5 6 6 6 7 7 9 8 9 9 9 9 9 9 8 9 10 10 8 7 7 8 8 9
Wind_Direction
146 138 136 140 133 125 120 123 132 144 152 153 150 147 147 146 146 145 145 143 139 135 125 112 101 96 98 99 101 102 105 108 108 108 109 109 114 121 128 135 140 128 127
141 138 138 141 137 128 120 117 120 126 135 139 142 141 140 140 141 142 142 143 143 140 130 117 105 99 98 101 104 107 111 114 113 115 123 122 117 121 129 133 128 125 132
140 139 144 141 139 132 124 118 116 117 120 124 128 132 132 133 135 138 142 146 150 148 139 128 115 107 104 107 111 114 117 117 116 132 171 136 121 122 126 124 123 131 134
141 143 145 139 140 136 130 124 120 118 117 119 121 124 128 131 135 141 149 157 163 163 157 153 138 125 118 117 121 124 125 122 126 206 175 118 126 123 128 128 130 136 137
140 139 135 144 143 140 137 133 129 126 125 124 125 128 132 137 146 156 166 177 183 185 183 178 170 155 143 140 140 139 135 133 170 238 105 112 115 127 136 136 138 139 139
143 146 139 148 146 145 144 142 140 138 136 135 137 141 147 156 167 178 188 197 202 201 199 195 192 185 173 165 166 165 156 171 222 165 117 129 122 137 146 145 145 144 142
149 144 141 149 150 151 151 151 150 149 149 150 153 159 167 179 191 201 209 217 222 219 215 209 205 202 196 188 189 191 198 225 253 139 144 140 119 140 156 154 153 151 149
147 143 137 145 151 155 157 156 155 155 159 164 170 178 189 202 213 221 226 234 236 230 223 219 214 210 207 203 203 205 214 241 236 203 195 156 125 155 168 163 161 159 157
146 142 147 157 158 159 157 156 157 159 166 175 187 201 216 224 232 237 237 242 243 241 238 232 226 223 217 211 211 213 218 238 259 227 215 179 144 176 185 176 175 173 167
145 146 150 161 153 164 162 152 153 153 167 194 221 236 247 245 240 238 240 230 241 248 249 247 240 233 226 218 216 219 222 230 244 230 221 172 156 190 199 192 189 187 182
146 143 146 144 144 159 159 140 161 158 159 228 225 226 247 254 248 230 239 232 253 257 257 255 251 243 234 223 221 222 223 236 236 235 228 149 167 198 208 204 199 198 195
149 142 130 130 135 140 118 110 105 97 78 313 319 293 271 274 278 275 276 259 261 261 256 248 250 246 238 234 217 213 229 234 247 234 219 159 183 206 215 212 208 205 203
146 137 132 121 109 115 99 86 77 52 33 332 328 312 289 276 264 262 259 248 246 246 249 233 234 242 239 243 243 226 230 236 238 240 220 176 195 211 219 218 214 212 209
139 131 118 113 111 109 106 108 93 60 20 345 333 318 304 280 271 266 258 264 264 260 260 263 259 256 258 256 250 248 241 238 239 241 231 185 200 214 221 223 220 217 213
139 126 118 112 115 114 108 90 72 53 9 357 333 336 317 298 294 286 271 263 267 264 255 257 261 264 264 255 251 247 244 241 242 241 237 202 208 217 223 226 225 222 219
140 130 124 118 114 110 104 90 70 51 31 358 349 346 328 313 309 292 270 262 263 265 276 277 273 270 267 267 260 256 253 248 243 243 243 227 213 217 223 227 228 226 223
143 136 130 128 118 110 100 86 73 48 28 13 6 354 341 325 323 301 279 264 269 270 262 262 267 264 263 263 261 260 255 252 250 244 244 243 234 219 219 225 228 228 226
145 139 136 129 119 111 92 74 63 38 24 11 359 354 355 344 328 302 290 280 291 276 269 269 267 274 274 273 271 269 264 254 250 248 245 241 241 237 223 220 224 226 227
151 145 138 126 128 121 113 101 73 54 22 3 357 359 354 339 330 304 295 308 286 279 279 281 283 286 285 282 277 265 262 258 253 248 245 243 239 237 237 222 216 221 227
162 160 157 158 154 165 161 156 329 7 357 355 358 9 348 338 337 319 293 298 290 283 281 282 288 279 284 282 282 280 270 263 255 249 247 243 237 235 234 236 226 222 222
180 183 187 195 184 200 216 266 307 330 336 339 345 2 343 342 340 323 313 309 293 289 293 290 284 280 276 285 283 279 269 254 249 247 244 246 240 235 235 234 234 233 224
197 203 206 210 209 216 214 251 290 314 315 326 329 337 333 335 329 320 331 306 305 301 281 282 278 287 288 285 289 295 288 268 232 240 239 238 244 242 240 237 233 232 236
213 215 219 220 219 223 222 239 255 263 272 290 321 320 330 322 318 321 314 311 312 296 294 294 285 275 285 285 278 290 297 300 315 259 246 244 244 248 250 248 240 234 232
221 222 224 225 225 222 220 244 273 296 307 318 310 316 312 299 306 306 304 304 303 299 302 286 291 291 277 280 274 264 273 294 293 292 275 259 256 259 262 256 248 239 234
227 228 226 224 221 217 222 234 255 277 294 297 301 297 294 294 292 298 302 303 298 293 305 306 300 289 283 279 285 282 277 271 264 272 286 292 282 271 269 264 252 244 240
227 225 224 215 213 210 218 233 251 274 281 290 291 297 292 292 289 290 292 295 290 299 302 293 293 280 281 288 286 282 280 280 281 280 283 287 288 283 276 272 262 245 239
Height
1537 1538 1538 1541 1543 1546 1548 1550 1552 1554 1556 1557 1558 1560 1561 1562 1562 1563 1564 1564 1565 1565 1566 1566 1566 1567 1567 1567 1567 1567 1567 1567 1566 1566 1566 1566 1566 1567 1568 1569 1570 1571 1571
1537 1538 1539 1542 1545 1547 1549 1551 1553 1555 1557 1558 1560 1561 1562 1563 1563 1564 1565 1565 1566 1566 1567 1567 1567 1568 1568 1568 1568 1568 1568 1568 1568 1568 1568 1568 1568 1569 1570 1570 1571 1573 1574
1538 1539 1541 1543 1546 1548 1551 1553 1555 1556 1558 1559 1560 1562 1563 1564 1564 1565 1566 1566 1567 1567 1567 1568 1568 1569 1569 1569 1569 1569 1569 1569 1569 1570 1570 1571 1571 1571 1572 1573 1574 1575 1576
1540 1541 1543 1545 1548 1550 1552 1554 1556 1558 1559 1560 1561 1562 1563 1564 1565 1565 1566 1567 1567 1568 1568 1569 1569 1569 1570 1570 1570 1570 1570 1571 1571 1571 1574 1574 1574 1573 1573 1575 1576 1577 1578
1543 1544 1544 1547 1549 1551 1553 1555 1557 1559 1560 1561 1562 1563 1564 1565 1565 1566 1566 1567 1568 1568 1569 1569 1570 1570 1570 1571 1571 1571 1572 1572 1573 1574 1576 1576 1575 1574 1575 1576 1577 1578 1580
1544 1546 1546 1548 1551 1553 1555 1557 1558 1560 1561 1562 1563 1564 1565 1565 1566 1566 1567 1567 1568 1569 1569 1570 1570 1571 1571 1571 1572 1572 1573 1573 1574 1577 1577 1577 1577 1576 1576 1578 1579 1580 1581
1547 1549 1548 1550 1552 1554 1556 1558 1559 1560 1561 1563 1563 1564 1565 1565 1566 1566 1567 1567 1568 1569 1569 1570 1570 1571 1571 1572 1572 1573 1574 1574 1576 1578 1578 1578 1577 1577 1578 1579 1580 1581 1583
1548 1550 1549 1551 1553 1555 1557 1558 1560 1561 1562 1563 1563 1564 1564 1565 1565 1566 1566 1567 1567 1568 1569 1569 1570 1570 1571 1572 1572 1573 1574 1575 1577 1579 1579 1579 1577 1578 1578 1579 1581 1582 1583
1550 1551 1552 1553 1554 1556 1557 1559 1560 1561 1562 1562 1563 1563 1564 1564 1564 1565 1565 1566 1567 1567 1568 1568 1569 1570 1570 1571 1571 1572 1573 1574 1576 1578 1579 1579 1578 1578 1579 1580 1581 1583 1584
1550 1552 1553 1556 1557 1558 1559 1559 1560 1560 1561 1561 1562 1562 1563 1563 1563 1563 1564 1565 1565 1566 1566 1567 1567 1568 1569 1569 1570 1571 1572 1573 1575 1577 1578 1578 1577 1578 1579 1580 1581 1582 1584
1550 1552 1554 1556 1556 1558 1559 1559 1560 1560 1560 1561 1561 1561 1561 1562 1563 1563 1563 1563 1563 1564 1564 1565 1565 1566 1567 1567 1568 1569 1570 1572 1575 1576 1577 1576 1576 1577 1578 1580 1581 1582 1584
1550 1552 1552 1555 1556 1558 1559 1559 1560 1560 1560 1560 1561 1560 1560 1561 1561 1562 1561 1561 1561 1561 1562 1562 1563 1563 1564 1566 1566 1566 1568 1570 1572 1573 1574 1573 1574 1576 1577 1578 1580 1581 1583
1550 1552 1553 1554 1555 1557 1558 1558 1559 1559 1559 1559 1558 1558 1558 1558 1558 1558 1558 1558 1559 1559 1560 1560 1560 1561 1562 1563 1564 1564 1565 1567 1569 1570 1571 1570 1572 1573 1575 1577 1578 1579 1581
1550 1551 1553 1553 1555 1556 1557 1558 1559 1559 1558 1558 1557 1557 1557 1557 1556 1556 1555 1556 1556 1556 1556 1557 1557 1558 1558 1558 1559 1561 1562 1562 1564 1566 1566 1565 1568 1570 1572 1574 1576 1577 1579
1550 1551 1553 1554 1555 1556 1557 1558 1558 1557 1557 1557 1556 1555 1554 1554 1554 1554 1553 1552 1553 1553 1553 1553 1554 1554 1554 1554 1555 1556 1557 1558 1559 1560 1561 1561 1563 1565 1567 1569 1572 1574 1576
1550 1551 1552 1554 1555 1556 1556 1556 1557 1557 1556 1555 1554 1553 1552 1552 1551 1550 1550 1550 1550 1551 1550 1550 1550 1550 1550 1550 1550 1551 1551 1553 1553 1554 1556 1557 1557 1559 1562 1564 1567 1569 1572
1550 1551 1552 1554 1555 1555 1556 1557 1557 1556 1555 1554 1552 1551 1549 1549 1548 1548 1548 1548 1548 1547 1547 1547 1547 1546 1546 1547 1546 1546 1546 1547 1548 1548 1549 1551 1552 1553 1555 1557 1560 1563 1566
1551 1552 1553 1555 1555 1556 1556 1556 1556 1555 1554 1552 1551 1549 1547 1546 1545 1545 1546 1546 1544 1545 1545 1545 1544 1544 1544 1543 1543 1542 1542 1541 1541 1542 1543 1544 1545 1547 1548 1550 1553 1557 1560
1551 1552 1553 1554 1555 1556 1556 1555 1555 1554 1552 1551 1549 1547 1545 1544 1543 1543 1543 1543 1542 1543 1543 1542 1542 1541 1541 1540 1539 1538 1537 1536 1536 1536 1536 1537 1538 1539 1542 1543 1545 1549 1553
1551 1552 1553 1554 1555 1555 1555 1555 1554 1553 1552 1550 1548 1545 1543 1542 1541 1541 1541 1540 1540 1540 1540 1539 1538 1537 1537 1536 1535 1534 1533 1532 1531 1531 1531 1531 1532 1532 1534 1537 1539 1541 1544
1551 1552 1553 1554 1554 1554 1555 1555 1554 1553 1551 1549 1547 1543 1542 1540 1539 1538 1538 1537 1537 1537 1536 1536 1536 1535 1534 1533 1532 1530 1528 1526 1525 1525 1525 1525 1526 1526 1527 1529 1531 1534 1537
1551 1551 1552 1553 1553 1553 1553 1552 1551 1550 1549 1547 1545 1542 1540 1538 1537 1537 1535 1535 1535 1533 1533 1532 1532 1532 1532 1531 1530 1528 1525 1524 1521 1521 1520 1519 1520 1520 1521 1522 1524 1526 1529
1549 1550 1551 1551 1551 1551 1551 1551 1550 1548 1547 1546 1544 1542 1539 1537 1535 1534 1533 1532 1531 1531 1531 1530 1529 1529 1529 1528 1527 1527 1524 1520 1519 1518 1517 1516 1515 1515 1516 1516 1517 1519 1521
1548 1549 1549 1549 1549 1548 1548 1549 1548 1547 1546 1544 1542 1540 1537 1535 1533 1532 1530 1529 1528 1528 1527 1527 1527 1526 1525 1525 1525 1523 1523 1521 1520 1516 1515 1514 1512 1511 1511 1511 1511 1512 1513
1546 1546 1546 1546 1546 1546 1546 1545 1545 1544 1543 1542 1540 1538 1535 1534 1531 1530 1528 1526 1525 1525 1524 1523 1522 1522 1522 1522 1522 1521 1520 1518 1517 1515 1512 1511 1510 1508 1507 1506 1505 1506 1507
1542 1543 1543 1543 1543 1543 1543 1542 1542 1541 1539 1538 1537 1535 1534 1533 1530 1528 1526 1524 1523 1523 1521 1519 1518 1519 1518 1517 1517 1517 1517 1516 1514 1512 1510 1508 1506 1505 1503 1502 1501 1500 1501